Location: Sungai Bunut
(2.6333°N, 113.7333°E)
Time: 16:07:26
(UTC+00:00)

Altair - Pass Details

Date: 06 December 2023
Orbit: 1501 x 1682 km, 47.2° (Epoch: 24 February)

Event Time Altitude Azimuth Distance (km) Brightness Sun altitude
Rises 11:24:09 0° 276° (W) 4,647 11.1 -16.7°
Reaches altitude 10° 11:29:44 10° 249° (WSW) 3,695 10.8 -18.0°
Maximum altitude 11:33:16 13° 226° (SW) 3,515 10.4 -18.8°
Drops below altitude 10° 11:36:53 10° 203° (SSW) 3,745 10.1 -19.7°
Sets 11:42:44 0° 176° (S) 4,776 10.3 -21.0°
